Regional Weather Roundup
Issued by NWS

Home | Current Version | Previous Version | Text Only | Print | Product List | Glossary On
Versions: 1 2 3 4 5 6 7 8 9 10 11 12 13 14 15 16 17 18 19 20 21 22 23 24 25 26 27 28 29 30 31 32 33 34 35 36 37 38 39 40 41 42 43 44 45 46 47 48 49 50
104
ASUS44 KJAN 281710
RWRMS

MISSISSIPPI HOURLY WEATHER ROUNDUP
NATIONAL WEATHER SERVICE JACKSON MS
1200 PM CDT MON JUL 28 2014

NOTE: "FAIR: INDICATES FEW OR NO CLOUDS BELOW 12,000 FEET WITH NO
SIGNIFICANT WEATHER AND/OR OBSTRUCTIONS TO VISIBILITY.

MSZ001>002-007>008-010>013-018>021-025>028-034>036-281800-
NORTHWEST MISSISSIPPI

CITY           SKY/WX    TMP DP  RH WIND       PRES   REMARKS
CLARKSDALE     FAIR      82  66  57 NW7       30.09F
CLEVELAND      FAIR      83  70  64 N10       30.07F
GREENWOOD      SUNNY     86  69  56 NW7       30.05F HX  90
GREENVILLE     SUNNY     86  67  52 NE12      30.07S
GRENADA        FAIR      84  63  48 N8        30.06F
OLIVE BRANCH   MOSUNNY   81  63  54 N9        30.09F
OXFORD         FAIR      81  61  50 NW7       30.09F
TUNICA         SUNNY     81  63  54 N9G16     30.09F
$$

MSZ003>006-009-014>017-022>024-029>033-037>039-281800-
NORTHEAST MISSISSIPPI

CITY           SKY/WX    TMP DP  RH WIND       PRES   REMARKS
BELMONT        FAIR      81  64  57 NW8       30.05F
COLUMBUS AFB   SUNNY     86  66  51 N8        30.03F
CORINTH        FAIR      81  61  50 NW13      30.05F
GOLDN TRIANGLE MOSUNNY   88  70  55 NW8       30.03F HX  92
STARKVILLE     FAIR      86  68  54 N5        30.03F
TUPELO         SUNNY     84  62  47 N10       30.04F
$$

MSZ040-058-281800-
CENTRAL MISSISSIPPI

CITY           SKY/WX    TMP DP  RH WIND       PRES   REMARKS
JACKSON INTL   PTSUNNY   87  75  67 W8        30.05F HX  96
JACKSON HAWKNS MOSUNNY   87  73  62 VRB6      30.06F HX  94
MERIDIAN KEY   PTSUNNY   89  76  65 W7        30.02F HX 100
MERIDIAN NAS   MOSUNNY   90  75  61 VRB7      30.01F HX 100
RAYMOND        FAIR      86  81  84 W8        30.06F HX 102
VICKSBURG      MOSUNNY   86  73  65 NW7       30.07S HX  93
$$

MSZ059>079-281800-
SOUTH MISSISSIPPI

CITY           SKY/WX    TMP DP  RH WIND       PRES   REMARKS
BROOKHAVEN     PTSUNNY   84  77  79 W5        30.10S HX  94
COLUMBIA       FAIR      90  77  66 W10G21    30.05F HX 102
HATTIESBURG    PTSUNNY   90  76  63 W8G22     30.05F HX 101
MCCOMB         PTSUNNY   88  75  65 NW13G20   30.08F HX  97
NATCHEZ        CLOUDY    82  75  78 NW7       30.10S
PINE BELT      MOSUNNY   90  75  62 NW8       30.06F HX 100
$$

MSZ080>082-281800-
COASTAL MISSISSIPPI

CITY           SKY/WX    TMP DP  RH WIND       PRES   REMARKS
BAY ST LOUIS   MOSUNNY  N/A N/A N/A NW13      30.05F
BILOXI         MOSUNNY   92  78  62 VRB5      30.04F HX 106
PASCAGOULA     MOSUNNY   92  76  59 NW9       30.04F HX 104
GULFPORT       MOSUNNY   96  76  52 NW14G21   30.04F HX 109
$$



USA.gov is the U.S. government's official web portal to all federal, state and local government web resources and services.